owner,sensor,date,latitude,longitude,vertical_datum,wind_speed,wind_to_direction,wind_speed_of_gust,qcFlag 
SCCF RECON,ioos:station:SCCF:53:1,2013-06-01T00:00:00Z,26.6493,-81.8810,2.11,4.9,83.0,-9999.0,'1111122,1111122,1111122' 
SCCF RECON,ioos:station:SCCF:53:1,2013-06-01T00:15:00Z,26.6493,-81.8810,2.11,5.7,100.3,-9999.0,'1111122,1111122,1111122' 
SCCF RECON,ioos:station:SCCF:53:1,2013-06-01T00:30:00Z,26.6493,-81.8810,2.11,4.8,78.0,-9999.0,'1111122,1111122,1111122' 
SCCF RECON,ioos:station:SCCF:53:1,2013-06-01T00:45:00Z,26.6493,-81.8810,2.11,4.8,83.8,-9999.0,'1111122,1111122,1111122' 
SCCF RECON,ioos:station:SCCF:53:1,2013-06-01T01:00:00Z,26.6493,-81.8810,2.11,4.2,76.7,-9999.0,'1111122,1111122,1111122' 
SCCF RECON,ioos:station:SCCF:53:1,2013-06-01T01:15:00Z,26.6493,-81.8810,2.11,2.7,85.0,-9999.0,'1111122,1111122,1111122' 
SCCF RECON,ioos:station:SCCF:53:1,2013-06-01T01:30:00Z,26.6493,-81.8810,2.11,3.5,66.8,-9999.0,'1111122,1111122,1111122' 
SCCF RECON,ioos:station:SCCF:53:1,2013-06-01T01:45:00Z,26.6493,-81.8810,2.11,2.5,70.7,-9999.0,'1111122,1111122,1111122' 
SCCF RECON,ioos:station:SCCF:53:1,2013-06-01T02:00:00Z,26.6493,-81.8810,2.11,2.5,74.7,-9999.0,'1111122,1111122,1111122' 
SCCF RECON,ioos:station:SCCF:53:1,2013-06-01T02:15:00Z,26.6493,-81.8810,2.11,4.5,79.1,-9999.0,'1111122,1111122,1111122' 
SCCF RECON,ioos:station:SCCF:53:1,2013-06-01T02:30:00Z,26.6493,-81.8810,2.11,4.6,82.8,-9999.0,'1111122,1111122,1111122' 
SCCF RECON,ioos:station:SCCF:53:1,2013-06-01T02:45:00Z,26.6493,-81.8810,2.11,3.4,96.9,-9999.0,'1111122,1111122,1111122' 
SCCF RECON,ioos:station:SCCF:53:1,2013-06-01T03:00:00Z,26.6493,-81.8810,2.11,4.0,81.6,-9999.0,'1111122,1111122,1111122' 
SCCF RECON,ioos:station:SCCF:53:1,2013-06-01T03:15:00Z,26.6493,-81.8810,2.11,3.7,76.5,-9999.0,'1111122,1111122,1111122' 
SCCF RECON,ioos:station:SCCF:53:1,2013-06-01T03:30:00Z,26.6493,-81.8810,2.11,2.7,89.1,-9999.0,'1111122,1111122,1111122' 
SCCF RECON,ioos:station:SCCF:53:1,2013-06-01T03:45:00Z,26.6493,-81.8810,2.11,3.4,96.7,-9999.0,'1111122,1111122,1111122' 
SCCF RECON,ioos:station:SCCF:53:1,2013-06-01T04:00:00Z,26.6493,-81.8810,2.11,3.6,94.0,-9999.0,'1111122,1111122,1111122' 
SCCF RECON,ioos:station:SCCF:53:1,2013-06-01T04:15:00Z,26.6493,-81.8810,2.11,3.9,65.9,-9999.0,'1111122,1111122,1111122' 
SCCF RECON,ioos:station:SCCF:53:1,2013-06-01T04:30:00Z,26.6493,-81.8810,2.11,3.6,94.8,-9999.0,'1111122,1111122,1111122' 
SCCF RECON,ioos:station:SCCF:53:1,2013-06-01T04:45:00Z,26.6493,-81.8810,2.11,3.5,106.3,-9999.0,'1111122,1111122,1111122' 
SCCF RECON,ioos:station:SCCF:53:1,2013-06-01T05:00:00Z,26.6493,-81.8810,2.11,2.8,103.3,-9999.0,'1111122,1111122,1111122' 
SCCF RECON,ioos:station:SCCF:53:1,2013-06-01T05:15:00Z,26.6493,-81.8810,2.11,4.0,71.6,-9999.0,'1111122,1111122,1111122' 
SCCF RECON,ioos:station:SCCF:53:1,2013-06-01T05:30:00Z,26.6493,-81.8810,2.11,3.0,70.7,-9999.0,'1111122,1111122,1111122' 
SCCF RECON,ioos:station:SCCF:53:1,2013-06-01T05:45:00Z,26.6493,-81.8810,2.11,3.0,76.8,-9999.0,'1111122,1111122,1111122' 
SCCF RECON,ioos:station:SCCF:53:1,2013-06-01T06:00:00Z,26.6493,-81.8810,2.11,2.7,87.8,-9999.0,'1111122,1111122,1111122' 
SCCF RECON,ioos:station:SCCF:53:1,2013-06-01T06:15:00Z,26.6493,-81.8810,2.11,3.1,72.1,-9999.0,'1111122,1111122,1111122' 
SCCF RECON,ioos:station:SCCF:53:1,2013-06-01T06:30:00Z,26.6493,-81.8810,2.11,3.3,81.0,-9999.0,'1111122,1111122,1111122' 
SCCF RECON,ioos:station:SCCF:53:1,2013-06-01T06:45:00Z,26.6493,-81.8810,2.11,4.0,73.7,-9999.0,'1111122,1111122,1111122' 
SCCF RECON,ioos:station:SCCF:53:1,2013-06-01T07:00:00Z,26.6493,-81.8810,2.11,3.7,74.1,-9999.0,'1111122,1111122,1111122' 
SCCF RECON,ioos:station:SCCF:53:1,2013-06-01T07:15:00Z,26.6493,-81.8810,2.11,3.0,97.4,-9999.0,'1111122,1111122,1111122' 
SCCF RECON,ioos:station:SCCF:53:1,2013-06-01T07:30:00Z,26.6493,-81.8810,2.11,2.4,94.8,-9999.0,'1111122,1111122,1111122' 
SCCF RECON,ioos:station:SCCF:53:1,2013-06-01T07:45:00Z,26.6493,-81.8810,2.11,2.9,79.6,-9999.0,'1111122,1111122,1111122' 
SCCF RECON,ioos:station:SCCF:53:1,2013-06-01T08:00:00Z,26.6493,-81.8810,2.11,3.0,93.7,-9999.0,'1111122,1111122,1111122' 
SCCF RECON,ioos:station:SCCF:53:1,2013-06-01T08:15:00Z,26.6493,-81.8810,2.11,1.7,102.3,-9999.0,'1111122,1111122,1111122' 
SCCF RECON,ioos:station:SCCF:53:1,2013-06-01T08:30:00Z,26.6493,-81.8810,2.11,2.0,117.9,-9999.0,'1111122,1111122,1111122' 
SCCF RECON,ioos:station:SCCF:53:1,2013-06-01T08:45:00Z,26.6493,-81.8810,2.11,3.3,81.8,-9999.0,'1111122,1111122,1111122' 
SCCF RECON,ioos:station:SCCF:53:1,2013-06-01T09:00:00Z,26.6493,-81.8810,2.11,2.7,84.7,-9999.0,'1111122,1111122,1111122' 
SCCF RECON,ioos:station:SCCF:53:1,2013-06-01T09:15:00Z,26.6493,-81.8810,2.11,1.9,95.5,-9999.0,'1111122,1111122,1111122' 
SCCF RECON,ioos:station:SCCF:53:1,2013-06-01T09:30:00Z,26.6493,-81.8810,2.11,2.5,109.7,-9999.0,'1111122,1111122,1111122' 
SCCF RECON,ioos:station:SCCF:53:1,2013-06-01T09:45:00Z,26.6493,-81.8810,2.11,1.8,85.3,-9999.0,'1111122,1111122,1111122' 
SCCF RECON,ioos:station:SCCF:53:1,2013-06-01T10:00:00Z,26.6493,-81.8810,2.11,2.3,106.2,-9999.0,'1111122,1111122,1111122' 
SCCF RECON,ioos:station:SCCF:53:1,2013-06-01T10:15:00Z,26.6493,-81.8810,2.11,2.2,87.1,-9999.0,'1111122,1111122,1111122' 
SCCF RECON,ioos:station:SCCF:53:1,2013-06-01T10:30:00Z,26.6493,-81.8810,2.11,2.2,78.9,-9999.0,'1111122,1111122,1111122' 
SCCF RECON,ioos:station:SCCF:53:1,2013-06-01T10:45:00Z,26.6493,-81.8810,2.11,2.4,80.4,-9999.0,'1111122,1111122,1111122' 
SCCF RECON,ioos:station:SCCF:53:1,2013-06-01T11:00:00Z,26.6493,-81.8810,2.11,2.0,72.5,-9999.0,'1111122,1111122,1111122' 
SCCF RECON,ioos:station:SCCF:53:1,2013-06-01T11:15:00Z,26.6493,-81.8810,2.11,1.2,38.0,-9999.0,'1111122,1111122,1111122' 
SCCF RECON,ioos:station:SCCF:53:1,2013-06-01T11:30:00Z,26.6493,-81.8810,2.11,2.8,48.1,-9999.0,'1111122,1111122,1111122' 
SCCF RECON,ioos:station:SCCF:53:1,2013-06-01T11:45:00Z,26.6493,-81.8810,2.11,3.1,45.9,-9999.0,'1111122,1111122,1111122' 
SCCF RECON,ioos:station:SCCF:53:1,2013-06-01T12:00:00Z,26.6493,-81.8810,2.11,2.4,55.2,-9999.0,'1111122,1111122,1111122' 
SCCF RECON,ioos:station:SCCF:53:1,2013-06-01T12:15:00Z,26.6493,-81.8810,2.11,2.3,57.7,-9999.0,'1111122,1111122,1111122' 
SCCF RECON,ioos:station:SCCF:53:1,2013-06-01T12:30:00Z,26.6493,-81.8810,2.11,2.3,62.5,-9999.0,'1111122,1111122,1111122' 
SCCF RECON,ioos:station:SCCF:53:1,2013-06-01T12:45:00Z,26.6493,-81.8810,2.11,3.5,58.8,-9999.0,'1111122,1111122,1111122' 
SCCF RECON,ioos:station:SCCF:53:1,2013-06-01T13:00:00Z,26.6493,-81.8810,2.11,4.1,65.8,-9999.0,'1111122,1111122,1111122' 
SCCF RECON,ioos:station:SCCF:53:1,2013-06-01T13:15:00Z,26.6493,-81.8810,2.11,2.7,55.4,-9999.0,'1111122,1111122,1111122' 
SCCF RECON,ioos:station:SCCF:53:1,2013-06-01T13:30:00Z,26.6493,-81.8810,2.11,2.7,60.1,-9999.0,'1111122,1111122,1111122' 
SCCF RECON,ioos:station:SCCF:53:1,2013-06-01T13:45:00Z,26.6493,-81.8810,2.11,2.1,48.1,-9999.0,'1111122,1111122,1111122' 
SCCF RECON,ioos:station:SCCF:53:1,2013-06-01T14:00:00Z,26.6493,-81.8810,2.11,3.0,40.1,-9999.0,'1111122,1111122,1111122' 
SCCF RECON,ioos:station:SCCF:53:1,2013-06-01T14:15:00Z,26.6493,-81.8810,2.11,2.5,37.3,-9999.0,'1111122,1111122,1111122' 
SCCF RECON,ioos:station:SCCF:53:1,2013-06-01T14:30:00Z,26.6493,-81.8810,2.11,2.8,32.7,-9999.0,'1111122,1111122,1111122' 
SCCF RECON,ioos:station:SCCF:53:1,2013-06-01T14:45:00Z,26.6493,-81.8810,2.11,2.3,32.7,-9999.0,'1111122,1111122,1111122' 
SCCF RECON,ioos:station:SCCF:53:1,2013-06-01T15:00:00Z,26.6493,-81.8810,2.11,2.4,85.7,-9999.0,'1111122,1111122,1111122' 
SCCF RECON,ioos:station:SCCF:53:1,2013-06-01T15:15:00Z,26.6493,-81.8810,2.11,1.7,135.5,-9999.0,'1111122,1111122,1111122' 
SCCF RECON,ioos:station:SCCF:53:1,2013-06-01T15:30:00Z,26.6493,-81.8810,2.11,2.5,155.6,-9999.0,'1111122,1111122,1111122' 
SCCF RECON,ioos:station:SCCF:53:1,2013-06-01T15:45:00Z,26.6493,-81.8810,2.11,1.8,69.7,-9999.0,'1111122,1111122,1111122' 
SCCF RECON,ioos:station:SCCF:53:1,2013-06-01T16:00:00Z,26.6493,-81.8810,2.11,1.7,131.2,-9999.0,'1111122,1111122,1111122' 
SCCF RECON,ioos:station:SCCF:53:1,2013-06-01T16:15:00Z,26.6493,-81.8810,2.11,3.2,166.6,-9999.0,'1111122,1111122,1111122' 
SCCF RECON,ioos:station:SCCF:53:1,2013-06-01T16:30:00Z,26.6493,-81.8810,2.11,-9999.0,60.2,-9999.0,'1111122,1111122,1111122' 
SCCF RECON,ioos:station:SCCF:53:1,2013-06-01T16:45:00Z,26.6493,-81.8810,2.11,0.8,238.5,-9999.0,'1111122,1111122,1111122' 
SCCF RECON,ioos:station:SCCF:53:1,2013-06-01T17:00:00Z,26.6493,-81.8810,2.11,2.9,269.7,-9999.0,'1111122,1111122,1111122' 
SCCF RECON,ioos:station:SCCF:53:1,2013-06-01T17:15:00Z,26.6493,-81.8810,2.11,3.4,278.5,-9999.0,'1111122,1111122,1111122' 
SCCF RECON,ioos:station:SCCF:53:1,2013-06-01T17:30:00Z,26.6493,-81.8810,2.11,2.0,239.2,-9999.0,'1111122,1111122,1111122' 
SCCF RECON,ioos:station:SCCF:53:1,2013-06-01T17:45:00Z,26.6493,-81.8810,2.11,3.2,220.2,-9999.0,'1111122,1111122,1111122' 
SCCF RECON,ioos:station:SCCF:53:1,2013-06-01T18:00:00Z,26.6493,-81.8810,2.11,4.8,200.4,-9999.0,'1111122,1111122,1111122' 
SCCF RECON,ioos:station:SCCF:53:1,2013-06-01T18:15:00Z,26.6493,-81.8810,2.11,6.1,207.5,-9999.0,'1111122,1111122,1111122' 
SCCF RECON,ioos:station:SCCF:53:1,2013-06-01T18:30:00Z,26.6493,-81.8810,2.11,6.5,205.5,-9999.0,'1111122,1111122,1111122' 
SCCF RECON,ioos:station:SCCF:53:1,2013-06-01T18:45:00Z,26.6493,-81.8810,2.11,5.6,202.0,-9999.0,'1111122,1111122,1111122' 
SCCF RECON,ioos:station:SCCF:53:1,2013-06-01T19:00:00Z,26.6493,-81.8810,2.11,5.7,206.8,-9999.0,'1111122,1111122,1111122' 
SCCF RECON,ioos:station:SCCF:53:1,2013-06-01T19:15:00Z,26.6493,-81.8810,2.11,4.4,209.7,-9999.0,'1111122,1111122,1111122' 
SCCF RECON,ioos:station:SCCF:53:1,2013-06-01T19:30:00Z,26.6493,-81.8810,2.11,4.4,16.1,-9999.0,'1111122,1111122,1111122' 
SCCF RECON,ioos:station:SCCF:53:1,2013-06-01T19:45:00Z,26.6493,-81.8810,2.11,2.8,22.7,-9999.0,'1111122,1111122,1111122' 
SCCF RECON,ioos:station:SCCF:53:1,2013-06-01T20:00:00Z,26.6493,-81.8810,2.11,2.9,27.6,-9999.0,'1111122,1111122,1111122' 
SCCF RECON,ioos:station:SCCF:53:1,2013-06-01T20:15:00Z,26.6493,-81.8810,2.11,5.3,52.2,-9999.0,'1111122,1111122,1111122' 
SCCF RECON,ioos:station:SCCF:53:1,2013-06-01T20:30:00Z,26.6493,-81.8810,2.11,6.1,57.3,-9999.0,'1111122,1111122,1111122' 
SCCF RECON,ioos:station:SCCF:53:1,2013-06-01T20:45:00Z,26.6493,-81.8810,2.11,6.5,92.1,-9999.0,'1111122,1111122,1111122' 
SCCF RECON,ioos:station:SCCF:53:1,2013-06-01T21:00:00Z,26.6493,-81.8810,2.11,7.1,98.1,-9999.0,'1111122,1111122,1111122' 
SCCF RECON,ioos:station:SCCF:53:1,2013-06-01T21:15:00Z,26.6493,-81.8810,2.11,3.7,81.2,-9999.0,'1111122,1111122,1111122' 
SCCF RECON,ioos:station:SCCF:53:1,2013-06-01T21:30:00Z,26.6493,-81.8810,2.11,2.7,87.1,-9999.0,'1111122,1111122,1111122' 
SCCF RECON,ioos:station:SCCF:53:1,2013-06-01T21:45:00Z,26.6493,-81.8810,2.11,3.0,212.6,-9999.0,'1111122,1111122,1111122' 
SCCF RECON,ioos:station:SCCF:53:1,2013-06-01T22:00:00Z,26.6493,-81.8810,2.11,1.4,165.0,-9999.0,'1111122,1111122,1111122' 
SCCF RECON,ioos:station:SCCF:53:1,2013-06-01T22:15:00Z,26.6493,-81.8810,2.11,3.3,146.7,-9999.0,'1111122,1111122,1111122' 
SCCF RECON,ioos:station:SCCF:53:1,2013-06-01T22:30:00Z,26.6493,-81.8810,2.11,3.1,87.7,-9999.0,'1111122,1111122,1111122' 
SCCF RECON,ioos:station:SCCF:53:1,2013-06-01T22:45:00Z,26.6493,-81.8810,2.11,1.9,109.3,-9999.0,'1111122,1111122,1111122' 
SCCF RECON,ioos:station:SCCF:53:1,2013-06-01T23:00:00Z,26.6493,-81.8810,2.11,1.9,82.1,-9999.0,'1111122,1111122,1111122' 
SCCF RECON,ioos:station:SCCF:53:1,2013-06-01T23:15:00Z,26.6493,-81.8810,2.11,2.5,96.9,-9999.0,'1111122,1111122,1111122' 
SCCF RECON,ioos:station:SCCF:53:1,2013-06-01T23:30:00Z,26.6493,-81.8810,2.11,3.5,52.3,-9999.0,'1111122,1111122,1111122' 
SCCF RECON,ioos:station:SCCF:53:1,2013-06-01T23:45:00Z,26.6493,-81.8810,2.11,3.6,60.8,-9999.0,'1111122,1111122,1111122' 
SCCF RECON,ioos:station:SCCF:53:1,2013-06-02T00:00:00Z,26.6493,-81.8810,2.11,3.0,95.8,-9999.0,'1111122,1111122,1111122' 
SCCF RECON,ioos:station:SCCF:53:1,2013-06-02T00:15:00Z,26.6493,-81.8810,2.11,2.2,112.6,-9999.0,'1111122,1111122,1111122' 
SCCF RECON,ioos:station:SCCF:53:1,2013-06-02T00:30:00Z,26.6493,-81.8810,2.11,3.1,144.8,-9999.0,'1111122,1111122,1111122' 
SCCF RECON,ioos:station:SCCF:53:1,2013-06-02T00:45:00Z,26.6493,-81.8810,2.11,3.7,179.2,-9999.0,'1111122,1111122,1111122' 
SCCF RECON,ioos:station:SCCF:53:1,2013-06-02T01:00:00Z,26.6493,-81.8810,2.11,1.6,160.7,-9999.0,'1111122,1111122,1111122' 
SCCF RECON,ioos:station:SCCF:53:1,2013-06-02T01:15:00Z,26.6493,-81.8810,2.11,1.6,188.1,-9999.0,'1111122,1111122,1111122' 
SCCF RECON,ioos:station:SCCF:53:1,2013-06-02T01:30:00Z,26.6493,-81.8810,2.11,0.8,218.8,-9999.0,'1111122,1111122,1111122' 
SCCF RECON,ioos:station:SCCF:53:1,2013-06-02T01:45:00Z,26.6493,-81.8810,2.11,0.4,90.1,-9999.0,'1111122,1111122,1111122' 
SCCF RECON,ioos:station:SCCF:53:1,2013-06-02T02:00:00Z,26.6493,-81.8810,2.11,2.9,86.8,-9999.0,'1111122,1111122,1111122' 
SCCF RECON,ioos:station:SCCF:53:1,2013-06-02T02:15:00Z,26.6493,-81.8810,2.11,1.8,70.7,-9999.0,'1111122,1111122,1111122' 
SCCF RECON,ioos:station:SCCF:53:1,2013-06-02T02:30:00Z,26.6493,-81.8810,2.11,2.2,56.3,-9999.0,'1111122,1111122,1111122' 
SCCF RECON,ioos:station:SCCF:53:1,2013-06-02T02:45:00Z,26.6493,-81.8810,2.11,2.3,42.1,-9999.0,'1111122,1111122,1111122' 
SCCF RECON,ioos:station:SCCF:53:1,2013-06-02T03:00:00Z,26.6493,-81.8810,2.11,1.1,47.3,-9999.0,'1111122,1111122,1111122' 
SCCF RECON,ioos:station:SCCF:53:1,2013-06-02T03:15:00Z,26.6493,-81.8810,2.11,2.3,61.6,-9999.0,'1111122,1111122,1111122' 
SCCF RECON,ioos:station:SCCF:53:1,2013-06-02T03:30:00Z,26.6493,-81.8810,2.11,2.7,105.8,-9999.0,'1111122,1111122,1111122' 
SCCF RECON,ioos:station:SCCF:53:1,2013-06-02T03:45:00Z,26.6493,-81.8810,2.11,1.6,132.2,-9999.0,'1111122,1111122,1111122' 
SCCF RECON,ioos:station:SCCF:53:1,2013-06-02T04:00:00Z,26.6493,-81.8810,2.11,1.9,146.0,-9999.0,'1111122,1111122,1111122' 
SCCF RECON,ioos:station:SCCF:53:1,2013-06-02T04:15:00Z,26.6493,-81.8810,2.11,2.7,131.5,-9999.0,'1111122,1111122,1111122' 
SCCF RECON,ioos:station:SCCF:53:1,2013-06-02T04:30:00Z,26.6493,-81.8810,2.11,2.3,142.8,-9999.0,'1111122,1111122,1111122' 
SCCF RECON,ioos:station:SCCF:53:1,2013-06-02T04:45:00Z,26.6493,-81.8810,2.11,1.5,140.5,-9999.0,'1111122,1111122,1111122' 
SCCF RECON,ioos:station:SCCF:53:1,2013-06-02T05:00:00Z,26.6493,-81.8810,2.11,0.8,116.1,-9999.0,'1111122,1111122,1111122' 
SCCF RECON,ioos:station:SCCF:53:1,2013-06-02T05:15:00Z,26.6493,-81.8810,2.11,1.4,89.6,-9999.0,'1111122,1111122,1111122' 
SCCF RECON,ioos:station:SCCF:53:1,2013-06-02T05:30:00Z,26.6493,-81.8810,2.11,2.6,141.6,-9999.0,'1111122,1111122,1111122' 
SCCF RECON,ioos:station:SCCF:53:1,2013-06-02T05:45:00Z,26.6493,-81.8810,2.11,1.5,154.0,-9999.0,'1111122,1111122,1111122' 
SCCF RECON,ioos:station:SCCF:53:1,2013-06-02T06:00:00Z,26.6493,-81.8810,2.11,1.8,142.2,-9999.0,'1111122,1111122,1111122' 
SCCF RECON,ioos:station:SCCF:53:1,2013-06-02T06:15:00Z,26.6493,-81.8810,2.11,1.3,92.6,-9999.0,'1111122,1111122,1111122' 
SCCF RECON,ioos:station:SCCF:53:1,2013-06-02T06:30:00Z,26.6493,-81.8810,2.11,1.0,117.6,-9999.0,'1111122,1111122,1111122' 
SCCF RECON,ioos:station:SCCF:53:1,2013-06-02T06:45:00Z,26.6493,-81.8810,2.11,0.7,148.8,-9999.0,'1111122,1111122,1111122' 
SCCF RECON,ioos:station:SCCF:53:1,2013-06-02T07:00:00Z,26.6493,-81.8810,2.11,0.7,80.5,-9999.0,'1111122,1111122,1111122' 
SCCF RECON,ioos:station:SCCF:53:1,2013-06-02T07:15:00Z,26.6493,-81.8810,2.11,1.4,347.0,-9999.0,'1111122,1111122,1111122' 
SCCF RECON,ioos:station:SCCF:53:1,2013-06-02T07:30:00Z,26.6493,-81.8810,2.11,2.1,3.9,-9999.0,'1111122,1111122,1111122' 
SCCF RECON,ioos:station:SCCF:53:1,2013-06-02T07:45:00Z,26.6493,-81.8810,2.11,1.4,345.8,-9999.0,'1111122,1111122,1111122' 
SCCF RECON,ioos:station:SCCF:53:1,2013-06-02T08:00:00Z,26.6493,-81.8810,2.11,2.3,11.1,-9999.0,'1111122,1111122,1111122' 
SCCF RECON,ioos:station:SCCF:53:1,2013-06-02T08:15:00Z,26.6493,-81.8810,2.11,1.6,48.3,-9999.0,'1111122,1111122,1111122' 
SCCF RECON,ioos:station:SCCF:53:1,2013-06-02T08:30:00Z,26.6493,-81.8810,2.11,1.4,24.9,-9999.0,'1111122,1111122,1111122' 
SCCF RECON,ioos:station:SCCF:53:1,2013-06-02T08:45:00Z,26.6493,-81.8810,2.11,1.2,76.9,-9999.0,'1111122,1111122,1111122' 
SCCF RECON,ioos:station:SCCF:53:1,2013-06-02T09:00:00Z,26.6493,-81.8810,2.11,1.6,110.6,-9999.0,'1111122,1111122,1111122' 
SCCF RECON,ioos:station:SCCF:53:1,2013-06-02T09:15:00Z,26.6493,-81.8810,2.11,1.7,101.8,-9999.0,'1111122,1111122,1111122' 
SCCF RECON,ioos:station:SCCF:53:1,2013-06-02T09:30:00Z,26.6493,-81.8810,2.11,2.5,122.8,-9999.0,'1111122,1111122,1111122' 
SCCF RECON,ioos:station:SCCF:53:1,2013-06-02T09:45:00Z,26.6493,-81.8810,2.11,2.6,105.8,-9999.0,'1111122,1111122,1111122' 
SCCF RECON,ioos:station:SCCF:53:1,2013-06-02T10:00:00Z,26.6493,-81.8810,2.11,3.2,144.5,-9999.0,'1111122,1111122,1111122' 
SCCF RECON,ioos:station:SCCF:53:1,2013-06-02T10:15:00Z,26.6493,-81.8810,2.11,2.7,139.0,-9999.0,'1111122,1111122,1111122' 
SCCF RECON,ioos:station:SCCF:53:1,2013-06-02T10:30:00Z,26.6493,-81.8810,2.11,2.4,149.9,-9999.0,'1111122,1111122,1111122' 
SCCF RECON,ioos:station:SCCF:53:1,2013-06-02T10:45:00Z,26.6493,-81.8810,2.11,2.7,150.0,-9999.0,'1111122,1111122,1111122' 
SCCF RECON,ioos:station:SCCF:53:1,2013-06-02T11:00:00Z,26.6493,-81.8810,2.11,2.9,149.2,-9999.0,'1111122,1111122,1111122' 
SCCF RECON,ioos:station:SCCF:53:1,2013-06-02T11:15:00Z,26.6493,-81.8810,2.11,2.7,144.1,-9999.0,'1111122,1111122,1111122' 
SCCF RECON,ioos:station:SCCF:53:1,2013-06-02T11:30:00Z,26.6493,-81.8810,2.11,3.4,140.0,-9999.0,'1111122,1111122,1111122' 
SCCF RECON,ioos:station:SCCF:53:1,2013-06-02T11:45:00Z,26.6493,-81.8810,2.11,2.2,135.6,-9999.0,'1111122,1111122,1111122' 
SCCF RECON,ioos:station:SCCF:53:1,2013-06-02T12:00:00Z,26.6493,-81.8810,2.11,1.9,140.3,-9999.0,'1111122,1111122,1111122' 
SCCF RECON,ioos:station:SCCF:53:1,2013-06-02T12:15:00Z,26.6493,-81.8810,2.11,1.8,153.0,-9999.0,'1111122,1111122,1111122' 
SCCF RECON,ioos:station:SCCF:53:1,2013-06-02T12:30:00Z,26.6493,-81.8810,2.11,0.7,100.7,-9999.0,'1111122,1111122,1111122' 
SCCF RECON,ioos:station:SCCF:53:1,2013-06-02T12:45:00Z,26.6493,-81.8810,2.11,1.5,90.5,-9999.0,'1111122,1111122,1111122' 
SCCF RECON,ioos:station:SCCF:53:1,2013-06-02T13:00:00Z,26.6493,-81.8810,2.11,1.2,90.0,-9999.0,'1111122,1111122,1111122' 
SCCF RECON,ioos:station:SCCF:53:1,2013-06-02T13:15:00Z,26.6493,-81.8810,2.11,0.9,198.9,-9999.0,'1111122,1111122,1111122' 
SCCF RECON,ioos:station:SCCF:53:1,2013-06-02T13:30:00Z,26.6493,-81.8810,2.11,0.4,226.1,-9999.0,'1111122,1111122,1111122' 
SCCF RECON,ioos:station:SCCF:53:1,2013-06-02T13:45:00Z,26.6493,-81.8810,2.11,0.8,267.8,-9999.0,'1111122,1111122,1111122' 
SCCF RECON,ioos:station:SCCF:53:1,2013-06-02T14:00:00Z,26.6493,-81.8810,2.11,1.2,317.3,-9999.0,'1111122,1111122,1111122' 
SCCF RECON,ioos:station:SCCF:53:1,2013-06-02T14:15:00Z,26.6493,-81.8810,2.11,1.8,276.9,-9999.0,'1111122,1111122,1111122' 
SCCF RECON,ioos:station:SCCF:53:1,2013-06-02T14:30:00Z,26.6493,-81.8810,2.11,1.9,244.4,-9999.0,'1111122,1111122,1111122' 
SCCF RECON,ioos:station:SCCF:53:1,2013-06-02T14:45:00Z,26.6493,-81.8810,2.11,1.4,228.9,-9999.0,'1111122,1111122,1111122' 
SCCF RECON,ioos:station:SCCF:53:1,2013-06-02T15:00:00Z,26.6493,-81.8810,2.11,2.7,222.9,-9999.0,'1111122,1111122,1111122' 
SCCF RECON,ioos:station:SCCF:53:1,2013-06-02T15:15:00Z,26.6493,-81.8810,2.11,3.1,225.9,-9999.0,'1111122,1111122,1111122' 
SCCF RECON,ioos:station:SCCF:53:1,2013-06-02T15:30:00Z,26.6493,-81.8810,2.11,4.0,218.8,-9999.0,'1111122,1111122,1111122' 
SCCF RECON,ioos:station:SCCF:53:1,2013-06-02T15:45:00Z,26.6493,-81.8810,2.11,3.4,218.6,-9999.0,'1111122,1111122,1111122' 
SCCF RECON,ioos:station:SCCF:53:1,2013-06-02T16:00:00Z,26.6493,-81.8810,2.11,3.4,232.9,-9999.0,'1111122,1111122,1111122' 
SCCF RECON,ioos:station:SCCF:53:1,2013-06-02T16:15:00Z,26.6493,-81.8810,2.11,5.6,222.7,-9999.0,'1111122,1111122,1111122' 
SCCF RECON,ioos:station:SCCF:53:1,2013-06-02T16:30:00Z,26.6493,-81.8810,2.11,5.6,222.6,-9999.0,'1111122,1111122,1111122' 
SCCF RECON,ioos:station:SCCF:53:1,2013-06-02T16:45:00Z,26.6493,-81.8810,2.11,4.8,226.6,-9999.0,'1111122,1111122,1111122' 
SCCF RECON,ioos:station:SCCF:53:1,2013-06-02T17:00:00Z,26.6493,-81.8810,2.11,5.5,226.7,-9999.0,'1111122,1111122,1111122' 
SCCF RECON,ioos:station:SCCF:53:1,2013-06-02T17:15:00Z,26.6493,-81.8810,2.11,5.4,226.4,-9999.0,'1111122,1111122,1111122' 
SCCF RECON,ioos:station:SCCF:53:1,2013-06-02T17:30:00Z,26.6493,-81.8810,2.11,5.9,223.3,-9999.0,'1111122,1111122,1111122' 
SCCF RECON,ioos:station:SCCF:53:1,2013-06-02T17:45:00Z,26.6493,-81.8810,2.11,5.0,229.1,-9999.0,'1111122,1111122,1111122' 
SCCF RECON,ioos:station:SCCF:53:1,2013-06-02T18:00:00Z,26.6493,-81.8810,2.11,5.4,226.1,-9999.0,'1111122,1111122,1111122' 
SCCF RECON,ioos:station:SCCF:53:1,2013-06-02T18:15:00Z,26.6493,-81.8810,2.11,5.4,214.5,-9999.0,'1111122,1111122,1111122' 
SCCF RECON,ioos:station:SCCF:53:1,2013-06-02T18:30:00Z,26.6493,-81.8810,2.11,5.6,226.2,-9999.0,'1111122,1111122,1111122' 
SCCF RECON,ioos:station:SCCF:53:1,2013-06-02T18:45:00Z,26.6493,-81.8810,2.11,6.2,212.7,-9999.0,'1111122,1111122,1111122' 
SCCF RECON,ioos:station:SCCF:53:1,2013-06-02T19:00:00Z,26.6493,-81.8810,2.11,6.2,217.4,-9999.0,'1111122,1111122,1111122' 
SCCF RECON,ioos:station:SCCF:53:1,2013-06-02T19:15:00Z,26.6493,-81.8810,2.11,6.5,217.2,-9999.0,'1111122,1111122,1111122' 
SCCF RECON,ioos:station:SCCF:53:1,2013-06-02T19:30:00Z,26.6493,-81.8810,2.11,7.6,224.1,-9999.0,'1111122,1111122,1111122' 
SCCF RECON,ioos:station:SCCF:53:1,2013-06-02T19:45:00Z,26.6493,-81.8810,2.11,6.5,220.6,-9999.0,'1111122,1111122,1111122' 
SCCF RECON,ioos:station:SCCF:53:1,2013-06-02T20:00:00Z,26.6493,-81.8810,2.11,7.2,206.5,-9999.0,'1111122,1111122,1111122' 
SCCF RECON,ioos:station:SCCF:53:1,2013-06-02T20:15:00Z,26.6493,-81.8810,2.11,6.8,211.7,-9999.0,'1111122,1111122,1111122' 
SCCF RECON,ioos:station:SCCF:53:1,2013-06-02T20:30:00Z,26.6493,-81.8810,2.11,5.3,233.3,-9999.0,'1111122,1111122,1111122' 
SCCF RECON,ioos:station:SCCF:53:1,2013-06-02T20:45:00Z,26.6493,-81.8810,2.11,6.6,225.9,-9999.0,'1111122,1111122,1111122' 
SCCF RECON,ioos:station:SCCF:53:1,2013-06-02T21:00:00Z,26.6493,-81.8810,2.11,7.0,228.0,-9999.0,'1111122,1111122,1111122' 
SCCF RECON,ioos:station:SCCF:53:1,2013-06-02T21:15:00Z,26.6493,-81.8810,2.11,7.6,216.4,-9999.0,'1111122,1111122,1111122' 
SCCF RECON,ioos:station:SCCF:53:1,2013-06-02T21:30:00Z,26.6493,-81.8810,2.11,7.2,224.2,-9999.0,'1111122,1111122,1111122' 
SCCF RECON,ioos:station:SCCF:53:1,2013-06-02T21:45:00Z,26.6493,-81.8810,2.11,7.0,205.0,-9999.0,'1111122,1111122,1111122' 
SCCF RECON,ioos:station:SCCF:53:1,2013-06-02T22:00:00Z,26.6493,-81.8810,2.11,7.5,211.5,-9999.0,'1111122,1111122,1111122' 
SCCF RECON,ioos:station:SCCF:53:1,2013-06-02T22:15:00Z,26.6493,-81.8810,2.11,8.7,211.1,-9999.0,'1111122,1111122,1111122' 
SCCF RECON,ioos:station:SCCF:53:1,2013-06-02T22:30:00Z,26.6493,-81.8810,2.11,7.1,223.0,-9999.0,'1111122,1111122,1111122' 
SCCF RECON,ioos:station:SCCF:53:1,2013-06-02T22:45:00Z,26.6493,-81.8810,2.11,6.2,200.4,-9999.0,'1111122,1111122,1111122' 
SCCF RECON,ioos:station:SCCF:53:1,2013-06-02T23:00:00Z,26.6493,-81.8810,2.11,6.7,218.3,-9999.0,'1111122,1111122,1111122' 
SCCF RECON,ioos:station:SCCF:53:1,2013-06-02T23:15:00Z,26.6493,-81.8810,2.11,6.5,209.9,-9999.0,'1111122,1111122,1111122' 
SCCF RECON,ioos:station:SCCF:53:1,2013-06-02T23:30:00Z,26.6493,-81.8810,2.11,5.0,188.7,-9999.0,'1111122,1111122,1111122' 
SCCF RECON,ioos:station:SCCF:53:1,2013-06-02T23:45:00Z,26.6493,-81.8810,2.11,5.7,206.4,-9999.0,'1111122,1111122,1111122' 
SCCF RECON,ioos:station:SCCF:53:1,2013-06-03T00:00:00Z,26.6493,-81.8810,2.11,6.6,216.4,-9999.0,'1111122,1111122,1111122' 
SCCF RECON,ioos:station:SCCF:53:1,2013-06-03T00:15:00Z,26.6493,-81.8810,2.11,5.1,211.1,-9999.0,'1111122,1111122,1111122' 
SCCF RECON,ioos:station:SCCF:53:1,2013-06-03T00:30:00Z,26.6493,-81.8810,2.11,4.0,201.2,-9999.0,'1111122,1111122,1111122' 
SCCF RECON,ioos:station:SCCF:53:1,2013-06-03T00:45:00Z,26.6493,-81.8810,2.11,3.3,189.7,-9999.0,'1111122,1111122,1111122' 